Location: Gorze? G�rny
(49.8500°N, 19.5000°E)
Time: 03:29:01
(UTC+00:00)

Meteor 2-10 - Pass Details

Date: 13 May 2021
Orbit: 737 x 869 km, 81.2° (Epoch: 23 June)

Event Time Altitude Azimuth Distance (km) Brightness Sun altitude
Rises 23:28:55 0° 347° (NNW) 3,354 8.4 -20.6°
Reaches altitude 10° 23:31:22 10° 347° (NNW) 2,397 7.5 -20.5°
Maximum altitude 23:36:46 89° 263° (W) 791 4.0 -20.3°
Enters shadow 23:38:48 39° 170° (S) 1,151 4.4 -20.2°
